Location: Gallinara
(44.0333°N, 8.2333°E)
Time: 06:31:57
(UTC+00:00)

Cosmos 1743 - Pass Details

Date: 25 September 2020
Orbit: 510 x 527 km, 82.6° (Epoch: 23 October)

Event Time Altitude Azimuth Distance (km) Brightness Sun altitude
Rises 03:45:12 0° 353° (N) 2,631 6.4 -17.3°
Reaches altitude 10° 03:47:21 10° 356° (N) 1,741 5.5 -16.9°
Maximum altitude 03:51:09 71° 80° (E) 544 2.9 -16.3°
Drops below altitude 10° 03:54:56 10° 166° (SSE) 1,730 5.4 -15.6°
Sets 03:57:04 0° 168° (SSE) 2,613 6.3 -15.2°
